Location: Bridgewater
(44.3670°N, 64.5170°W)
Time: 03:40:42
(UTC-03:00)

Amateur Radio Satellites - All Passes

Search period start: 23 October 2014 03:10
Search period end: 24 October 2014 03:10
Location: Bridgewater, 44.3670°N, 64.5170°W

Satellite Date Start Highest point End Downlink Frequencies (MHz)
Time Altitude Azimuth
Oscar 19 23 Oct 03:17:09 03:22:16 73° 287° (WNW) 03:27:21 437.125 CW, 437.150 USB
AO-27 23 Oct 03:29:21 03:34:34 63° 102° (ESE) 03:39:44 436.795 MHz FM
Oscar 16 23 Oct 04:03:06 04:07:29 29° 295° (WNW) 04:11:50 437.025 USB, Beacon 2401.1428
JAS-1B 23 Oct 04:03:35 04:09:45 50° 291° (WNW) 04:17:00 435.800 - 435.900 CW/SSB
Sapphire 23 Oct 04:03:43 04:07:47 22° 107° (ESE) 04:11:52 437.095 MHz 1200 baud AX-25 AFSK
AO-Echo 23 Oct 04:14:49 04:19:46 41° 291° (WNW) 04:24:44 ?
Uribyol 2 23 Oct 04:18:23 04:23:23 47° 291° (WNW) 04:28:20 436.500 FM
Uosat F 23 Oct 04:22:10 04:23:13 11° 87° (E) 04:24:15 435.120 FM
ITAMSAT 1 23 Oct 04:23:53 04:28:52 45° 291° (WNW) 04:33:48 435.822 SSB
RS-15 23 Oct 04:25:05 04:33:52 26° 7° (N) 04:42:49 29.354 - 29.394 USB, Beacon 29.352 USB
PCSat 23 Oct 04:25:27 04:30:21 36° 112° (ESE) 04:35:17 145.825 MHz
Gurwin Techsat 1B 23 Oct 04:31:04 04:36:23 71° 287° (WNW) 04:41:39 435.225 FM
AO-7 23 Oct 04:31:26 04:38:09 26° 93° (E) 04:44:50 29.400 - 29.500 MHz
TMSAT-1 23 Oct 04:43:41 04:49:00 73° 287° (WNW) 04:54:16 436.925 FM
Oscar 19 23 Oct 04:59:28 05:00:42 11° 305° (NW) 05:01:55 437.125 CW, 437.150 USB
OPAL 23 Oct 05:00:24 05:05:21 50° 68° (ENE) 05:10:17 ?
AO-27 23 Oct 05:09:55 05:13:35 20° 300° (WNW) 05:17:14 436.795 MHz FM
Sapphire 23 Oct 05:45:26 05:50:46 59° 305° (NW) 05:56:09 437.095 MHz 1200 baud AX-25 AFSK
Uosat F 23 Oct 05:57:38 06:02:43 87° 104° (ESE) 06:07:46 435.120 FM
PCSat 23 Oct 06:08:43 06:13:45 38° 311° (NW) 06:18:49 145.825 MHz
JAS-2 23 Oct 06:13:19 06:20:37 43° 96° (E) 06:27:58 435.800 - 435.900 CW/SSB, 435.910 FM
Gurwin Techsat 1B 23 Oct 06:13:55 06:15:23 11° 306° (NW) 06:16:52 435.225 FM
AO-7 23 Oct 06:23:20 06:31:38 73° 292° (WNW) 06:39:54 29.400 - 29.500 MHz
TMSAT-1 23 Oct 06:26:21 06:27:59 11° 305° (NW) 06:29:37 436.925 FM
RS-15 23 Oct 06:39:14 06:49:51 48° 39° (NE) 07:00:49 29.354 - 29.394 USB, Beacon 29.352 USB
OPAL 23 Oct 06:40:30 06:44:28 22° 265° (W) 06:48:26 ?
STRAND 1 23 Oct 06:41:37 06:46:29 45° 69° (ENE) 06:51:23 ?
Hamsat 23 Oct 06:52:05 06:56:09 48° 99° (E) 07:00:13 145.90 MHz
Sapphire 23 Oct 07:32:35 07:35:23 14° 327° (NNW) 07:38:12 437.095 MHz 1200 baud AX-25 AFSK
Uosat F 23 Oct 07:38:16 07:40:48 14° 303° (WNW) 07:43:19 435.120 FM
Saudisat 1A 23 Oct 07:51:44 07:54:55 20° 112° (ESE) 07:58:08 436.775 MHz
SO-67 23 Oct 07:54:10 07:57:12 28° 96° (E) 08:00:14 435.3500 MHz FM
PCSat 23 Oct 07:58:00 07:58:48 10° 334° (NNW) 07:59:36 145.825 MHz
JAS-2 23 Oct 07:58:22 08:05:35 47° 294° (WNW) 08:12:58 435.800 - 435.900 CW/SSB, 435.910 FM
AO-7 23 Oct 08:17:41 08:23:04 20° 314° (NW) 08:28:28 29.400 - 29.500 MHz
STRAND 1 23 Oct 08:21:45 08:25:52 24° 266° (W) 08:30:01 ?
Hamsat 23 Oct 08:29:03 08:31:45 17° 296° (WNW) 08:34:27 145.90 MHz
RS-15 23 Oct 08:51:48 09:02:44 63° 244° (WSW) 09:14:08 29.354 - 29.394 USB, Beacon 29.352 USB
HO-68 23 Oct 09:14:10 09:19:48 24° 92° (E) 09:25:23 435.675 MHz FM
SO-67 23 Oct 09:27:36 09:30:00 18° 293° (WNW) 09:32:23 435.3500 MHz FM
Saudisat 1A 23 Oct 09:29:53 09:34:09 50° 310° (NW) 09:38:28 436.775 MHz
MaSat-1 23 Oct 09:42:59 09:45:31 32° 57° (ENE) 09:47:49 437.345 MHz
JAS-2 23 Oct 09:46:59 09:48:51 11° 314° (NW) 09:50:44 435.800 - 435.900 CW/SSB, 435.910 FM
UKube-1 23 Oct 09:54:26 09:56:43 14° 91° (E) 09:58:59 145.840 MHz, 145.915 MHz
FUNcube-1 23 Oct 10:30:57 10:32:59 13° 89° (E) 10:35:01 145.950 - 145.970 MHz USB
Oscar 11 23 Oct 10:36:17 10:40:16 35° 97° (E) 10:44:13 145.825 FM, Beacon 2401.500 USB
HO-68 23 Oct 11:00:56 11:08:05 70° 291° (WNW) 11:15:12 435.675 MHz FM
RS-15 23 Oct 11:08:03 11:12:45 14° 265° (W) 11:17:32 29.354 - 29.394 USB, Beacon 29.352 USB
Saudisat 1A 23 Oct 11:13:20 11:14:46 11° 331° (NNW) 11:16:12 436.775 MHz
ZACube-1 23 Oct 11:20:24 11:24:32 45° 99° (E) 11:28:33 437.345 MHz
UKube-1 23 Oct 11:28:58 11:33:17 60° 287° (WNW) 11:37:35 145.840 MHz, 145.915 MHz
PCSat 23 Oct 11:29:52 11:31:36 11° 28° (NNE) 11:33:20 145.825 MHz
KITSAT 1 23 Oct 11:35:23 11:40:11 17° 100° (E) 11:44:59 435.175 FM
FUNcube-1 23 Oct 12:05:34 12:09:48 58° 287° (WNW) 12:13:55 145.950 - 145.970 MHz USB
Oscar 11 23 Oct 12:12:53 12:16:15 23° 294° (WNW) 12:19:38 145.825 FM, Beacon 2401.500 USB
Sapphire 23 Oct 12:48:46 12:53:30 29° 46° (NE) 12:58:12 437.095 MHz 1200 baud AX-25 AFSK
HO-68 23 Oct 12:50:33 12:54:33 16° 311° (NW) 12:58:33 435.675 MHz FM
Oscar 19 23 Oct 12:57:32 13:01:47 27° 64° (ENE) 13:06:01 437.125 CW, 437.150 USB
ZACube-1 23 Oct 12:57:39 13:00:35 18° 296° (WNW) 13:03:28 437.345 MHz
JAS-1B 23 Oct 13:02:24 13:07:15 27° 63° (ENE) 13:11:56 435.800 - 435.900 CW/SSB
SO-50 23 Oct 13:04:54 13:08:06 19° 111° (ESE) 13:11:23 436.795 FM
PCSat 23 Oct 13:11:19 13:16:31 43° 51° (NE) 13:21:40 145.825 MHz
AO-27 23 Oct 13:12:14 13:15:28 17° 59° (ENE) 13:18:43 436.795 MHz FM
KITSAT 1 23 Oct 13:26:15 13:34:20 81° 120° (ESE) 13:42:26 435.175 FM
ISS 23 Oct 13:26:43 13:29:20 22° 136° (SE) 13:31:58 145.800 FM
Oscar 16 23 Oct 13:41:55 13:47:02 66° 72° (ENE) 13:52:09 437.025 USB, Beacon 2401.1428
AO-7 23 Oct 13:46:51 13:49:03 11° 37° (NE) 13:51:16 29.400 - 29.500 MHz
AO-Echo 23 Oct 13:50:56 13:55:28 40° 68° (ENE) 14:00:10 ?
Uribyol 2 23 Oct 13:58:45 14:03:38 42° 68° (ENE) 14:08:33 436.500 FM
ITAMSAT 1 23 Oct 14:04:18 14:09:13 44° 69° (ENE) 14:14:10 435.822 SSB
Gurwin Techsat 1B 23 Oct 14:14:55 14:19:29 30° 65° (ENE) 14:24:04 435.225 FM
TMSAT-1 23 Oct 14:27:18 14:31:49 29° 65° (ENE) 14:36:20 436.925 FM
Sapphire 23 Oct 14:31:55 14:37:11 51° 245° (WSW) 14:42:24 437.095 MHz 1200 baud AX-25 AFSK
Oscar 19 23 Oct 14:36:02 14:40:54 43° 262° (W) 14:45:48 437.125 CW, 437.150 USB
UOSAT-12 23 Oct 14:38:01 14:40:52 16° 109° (ESE) 14:43:44 437.025 FM, 437.400 FM
SO-50 23 Oct 14:43:49 14:48:15 54° 310° (NW) 14:52:50 436.795 FM
AO-27 23 Oct 14:49:10 14:54:22 75° 257° (WSW) 14:59:38 436.795 MHz FM
JAS-1B 23 Oct 14:52:04 14:57:47 44° 261° (W) 15:03:12 435.800 - 435.900 CW/SSB
PCSat 23 Oct 14:55:03 14:59:46 31° 250° (WSW) 15:04:27 145.825 MHz
ISS 23 Oct 15:02:30 15:05:48 59° 333° (NNW) 15:09:07 145.800 FM
Oscar 10/S400 23 Oct 15:18:31 15:35:32 41° 156° (SSE) 16:05:43 145.825 - 145.975 CW/USB, Beacon 145.810 USB
KITSAT 1 23 Oct 15:23:35 15:30:37 31° 323° (NW) 15:37:40 435.175 FM
Oscar 16 23 Oct 15:23:37 15:26:51 17° 270° (W) 15:30:05 437.025 USB, Beacon 2401.1428
AO-Echo 23 Oct 15:30:21 15:34:22 26° 267° (W) 15:38:32 ?
AO-7 23 Oct 15:32:03 15:39:40 43° 60° (ENE) 15:47:19 29.400 - 29.500 MHz
Uosat F 23 Oct 15:35:39 15:39:13 20° 61° (ENE) 15:42:48 435.120 FM
Uribyol 2 23 Oct 15:38:53 15:43:14 27° 266° (W) 15:47:38 436.500 FM
ITAMSAT 1 23 Oct 15:44:38 15:48:53 25° 266° (W) 15:53:11 435.822 SSB
Gurwin Techsat 1B 23 Oct 15:54:23 15:59:19 39° 263° (W) 16:04:17 435.225 FM
TMSAT-1 23 Oct 16:06:37 16:11:34 40° 262° (W) 16:16:34 436.925 FM
Saudisat 1A 23 Oct 16:15:43 16:19:38 30° 44° (NE) 16:23:31 436.775 MHz
UOSAT-12 23 Oct 16:15:50 16:20:28 68° 307° (NW) 16:25:12 437.025 FM, 437.400 FM
SO-50 23 Oct 16:27:48 16:29:53 13° 331° (NNW) 16:31:59 436.795 FM
JAS-2 23 Oct 16:29:08 16:33:31 21° 55° (NE) 16:38:15 435.800 - 435.900 CW/SSB, 435.910 FM
ISS 23 Oct 16:40:11 16:42:58 24° 353° (N) 16:45:46 145.800 FM
Uosat F 23 Oct 17:12:38 17:17:34 58° 259° (W) 17:22:34 435.120 FM
AO-7 23 Oct 17:24:27 17:32:22 48° 259° (W) 17:40:20 29.400 - 29.500 MHz
KITSAT 1 23 Oct 17:24:31 17:29:06 16° 352° (N) 17:33:40 435.175 FM
Hamsat 23 Oct 17:46:52 17:50:50 41° 71° (ENE) 17:54:48 145.90 MHz
Saudisat 1A 23 Oct 17:55:10 17:59:16 38° 243° (WSW) 18:03:21 436.775 MHz
UOSAT-12 23 Oct 17:58:49 18:01:31 15° 328° (NNW) 18:04:14 437.025 FM, 437.400 FM
JAS-2 23 Oct 18:11:48 18:17:41 77° 257° (WSW) 18:24:26 435.800 - 435.900 CW/SSB, 435.910 FM
ISS 23 Oct 18:17:25 18:20:22 28° 13° (NNE) 18:23:19 145.800 FM
SO-67 23 Oct 18:29:35 18:31:21 14° 65° (ENE) 18:33:08 435.3500 MHz FM
OPAL 23 Oct 18:47:14 18:52:15 83° 106° (ESE) 18:57:12 ?
STRAND 1 23 Oct 18:52:20 18:54:42 13° 88° (E) 18:57:04 ?
KITSAT 1 23 Oct 19:22:35 19:28:15 20° 23° (NNE) 19:33:55 435.175 FM
Hamsat 23 Oct 19:24:04 19:26:58 18° 268° (W) 19:29:53 145.90 MHz
HO-68 23 Oct 19:45:21 19:50:44 24° 55° (NE) 19:56:09 435.675 MHz FM
ISS 23 Oct 19:54:00 19:57:21 83° 212° (SSW) 20:00:42 145.800 FM
SO-67 23 Oct 20:00:46 20:04:00 39° 262° (W) 20:07:16 435.3500 MHz FM
JAS-2 23 Oct 20:02:07 20:04:09 12° 279° (W) 20:06:14 435.800 - 435.900 CW/SSB, 435.910 FM
AO-40 23 Oct 20:11:19 00:15:04 31° 136° (SE) 01:44:35 Beacon 2401.320
OPAL 23 Oct 20:27:48 20:30:28 15° 305° (NW) 20:33:07 ?
STRAND 1 23 Oct 20:29:20 20:34:31 81° 286° (WNW) 20:39:40 ?
UKube-1 23 Oct 20:51:35 20:54:18 16° 62° (ENE) 20:57:01 145.840 MHz, 145.915 MHz
RS-15 23 Oct 21:10:29 21:16:53 18° 98° (E) 21:23:13 29.354 - 29.394 USB, Beacon 29.352 USB
KITSAT 1 23 Oct 21:17:50 21:25:44 53° 49° (NE) 21:33:35 435.175 FM
FUNcube-1 23 Oct 21:28:44 21:31:30 16° 62° (ENE) 21:34:14 145.950 - 145.970 MHz USB
HO-68 23 Oct 21:30:32 21:37:42 79° 254° (WSW) 21:44:56 435.675 MHz FM
ISS 23 Oct 21:32:13 21:33:34 12° 229° (SW) 21:34:54 145.800 FM
Oscar 11 23 Oct 21:32:51 21:36:47 35° 69° (ENE) 21:40:43 145.825 FM, Beacon 2401.500 USB
SO-50 23 Oct 21:33:29 21:37:52 33° 45° (NE) 21:42:17 436.795 FM
STRAND 1 23 Oct 22:10:50 22:12:52 12° 304° (NW) 22:14:55 ?
ZACube-1 23 Oct 22:17:57 22:22:20 47° 72° (ENE) 22:26:41 437.345 MHz
UKube-1 23 Oct 22:25:47 22:30:03 55° 259° (W) 22:34:21 145.840 MHz, 145.915 MHz
FUNcube-1 23 Oct 23:02:51 23:07:24 62° 259° (W) 23:11:55 145.950 - 145.970 MHz USB
UOSAT-12 23 Oct 23:04:20 23:08:22 27° 42° (NE) 23:12:21 437.025 FM, 437.400 FM
Oscar 11 23 Oct 23:09:36 23:13:02 23° 266° (W) 23:16:29 145.825 FM, Beacon 2401.500 USB
KITSAT 1 23 Oct 23:13:35 23:20:57 41° 250° (WSW) 23:28:19 435.175 FM
SO-50 23 Oct 23:14:00 23:18:30 39° 243° (WSW) 23:23:02 436.795 FM
RS-15 23 Oct 23:16:16 23:27:12 75° 119° (ESE) 23:38:06 29.354 - 29.394 USB, Beacon 29.352 USB
HO-68 23 Oct 23:22:55 23:26:30 14° 273° (W) 23:30:07 435.675 MHz FM
ZACube-1 23 Oct 23:55:40 23:58:57 19° 268° (W) 00:02:13 437.345 MHz
UOSAT-12 24 Oct 00:44:12 00:48:46 49° 241° (WSW) 00:53:14 437.025 FM, 437.400 FM
MaSat-1 24 Oct 00:56:02 01:00:11 77° 298° (WNW) 01:03:56 437.345 MHz
RS-15 24 Oct 01:30:24 01:40:31 41° 326° (NW) 01:50:46 29.354 - 29.394 USB, Beacon 29.352 USB
Oscar 16 24 Oct 01:52:52 01:56:37 20° 92° (E) 02:00:20 437.025 USB, Beacon 2401.1428
AO-Echo 24 Oct 01:58:13 02:00:20 12° 87° (E) 02:02:27 ?
Uribyol 2 24 Oct 02:11:43 02:13:56 13° 88° (E) 02:16:08 436.500 FM
ITAMSAT 1 24 Oct 02:17:11 02:19:44 14° 89° (E) 02:22:15 435.822 SSB
JAS-1B 24 Oct 02:31:50 02:38:06 44° 99° (E) 02:45:28 435.800 - 435.900 CW/SSB
Oscar 19 24 Oct 02:45:36 02:50:40 60° 101° (E) 02:55:43 437.125 CW, 437.150 USB
AO-27 24 Oct 03:00:50 03:05:37 35° 97° (E) 03:10:21 436.795 MHz FM
